TimeEDT,TemperatureF,Dew PointF,Humidity,Sea Level PressureIn,VisibilityMPH,Wind Direction,Wind SpeedMPH,Gust SpeedMPH,PrecipitationIn,Events,Conditions,WindDirDegrees,DateUTC
12:56 AM,36.0,33.1,89,29.95,10.0,Calm,Calm,-,N/A,,Clear,0,2012-10-17 04:56:00
1:56 AM,37.0,33.1,86,29.95,10.0,Calm,Calm,-,N/A,,Clear,0,2012-10-17 05:56:00
2:56 AM,36.0,32.0,86,29.96,10.0,Calm,Calm,-,N/A,,Clear,0,2012-10-17 06:56:00
3:56 AM,37.0,33.1,86,29.95,10.0,Calm,Calm,-,N/A,,Clear,0,2012-10-17 07:56:00
4:56 AM,37.0,33.1,86,29.94,10.0,Calm,Calm,-,N/A,,Clear,0,2012-10-17 08:56:00
6:56 AM,37.9,33.1,83,29.98,10.0,Calm,Calm,-,N/A,,Clear,0,2012-10-17 10:56:00
7:56 AM,37.0,33.1,86,29.97,10.0,ESE,3.5,-,N/A,,Clear,110,2012-10-17 11:56:00
8:56 AM,43.0,37.9,82,29.98,10.0,Calm,Calm,-,N/A,,Clear,0,2012-10-17 12:56:00
9:56 AM,51.1,39.9,66,29.97,10.0,Variable,4.6,-,N/A,,Clear,0,2012-10-17 13:56:00
10:56 AM,55.0,37.0,51,29.96,10.0,SW,9.2,-,N/A,,Clear,230,2012-10-17 14:56:00
11:56 AM,60.1,36.0,41,29.94,10.0,SSW,6.9,-,N/A,,Clear,200,2012-10-17 15:56:00
12:56 PM,62.1,34.0,35,29.92,10.0,Variable,6.9,-,N/A,,Clear,0,2012-10-17 16:56:00
1:56 PM,64.0,32.0,30,29.90,10.0,SW,6.9,-,N/A,,Clear,220,2012-10-17 17:56:00
2:56 PM,64.9,34.0,32,29.88,10.0,SSW,9.2,-,N/A,,Clear,200,2012-10-17 18:56:00
3:56 PM,63.0,33.1,33,29.87,10.0,SSE,8.1,-,N/A,,Mostly Cloudy,160,2012-10-17 19:56:00
4:56 PM,64.0,34.0,33,29.87,10.0,SSW,10.4,-,N/A,,Mostly Cloudy,200,2012-10-17 20:56:00
5:56 PM,63.0,33.1,33,29.87,10.0,SSE,8.1,-,N/A,,Clear,160,2012-10-17 21:56:00
6:56 PM,61.0,34.0,36,29.88,10.0,South,8.1,-,N/A,,Clear,180,2012-10-17 22:56:00
7:56 PM,59.0,34.0,39,29.89,10.0,SSE,8.1,-,N/A,,Scattered Clouds,160,2012-10-17 23:56:00
8:56 PM,57.0,34.0,42,29.89,10.0,South,8.1,-,N/A,,Clear,170,2012-10-18 00:56:00
9:56 PM,55.0,37.0,51,29.88,10.0,South,9.2,17.3,N/A,,Clear,180,2012-10-18 01:56:00
10:56 PM,54.0,37.9,55,29.87,10.0,SSE,10.4,-,N/A,,Clear,160,2012-10-18 02:56:00
11:56 PM,53.1,39.0,59,29.86,10.0,South,10.4,19.6,N/A,,Clear,170,2012-10-18 03:56:00